Погода в Страшенах

Молдова     47°08′41″N   28°36′50″E
темп.,
°C
ветер,
м/с
пор.,
м/с
влажн.,
%
обл.,
%
осадки,
мм/ч
давл.,
гПа
погр.,
м
25 мая, ср
ср2500:00+12ююв226560 0.0 101511
03:00+11ююв127216 0.0 101611
06:00+11юв228017 0.0 101625
09:00+18ю46585 0.0 1017608
12:00+22ю674697 0.0 10171578
15:00+23ю7740100 0.0 10161976
18:00+23ю5845100 0.0 10151577
21:00+18ю8154538 0.0 1015542
26 мая, чт
чт2600:00+14ю818514 0.0 1016523
03:00+14ю7156453 0.0 1015428
06:00+13ююз497692 0.1 1015360
09:00+16зсз5976100 0.3 1016619
12:00+17ссз6874100 0.1 10181044
15:00+16зсз4780100 0.6 1019689
18:00+19зсз35625 0.0 1018721
21:00+15юз227933 0.0 101911
27 мая, пт
пт2700:00+16зюз1171100 0.0 102013
03:00+16зюз2269100 0.0 102014
06:00+15юз227194 0.0 101930
09:00+20зсз35572 0.0 1019488
12:00+23зюз44440 0.0 10181797
15:00+25юз563825 0.0 10162424
18:00+25юз47420 0.0 10131946
21:00+20ю23590 0.0 101231
28 мая, сб
сб2800:00+17з22705 0.0 101221
03:00+17сз6116955 0.0 1013502
06:00+13сз24803 0.0 101578
09:00+17ссз22575 0.0 1014685
12:00+21з2350100 0.0 10131194
15:00+23сз6549100 0.0 10121789
18:00+14с4783100 0.8 1013296
21:00+13ссв249493 2.4 1016278
29 мая, вс
вс2900:00+11ссз1194100 0.0 101713
03:00+9сз3591100 0.0 101896
06:00+9сз238781 0.0 101958
09:00+14ссв236548 0.0 1019482
12:00+18всв214838 0.0 10191407
15:00+20вюв224299 0.0 10172165
18:00+18св1152100 0.0 1017130
21:00+16с235654 0.0 101773